Airfield :
LOGIN :

Register | Disclaimer

   EN    FR    IT 

 










Legend :    VFR   Marginal VFR   IFR   Intensive IFR   Very Intensive IFR
Visi :
Ceiling :
>= 8 km
>= 3000ft
5 to 8 km
1000 to 3000 ft
1500m to 5 km
500 to 1000 ft
800 to 1500m
200 to 500 ft
< 800m
< 200 ft
Symbols :   Thunderstorms  Fog  Heavy snow  Heavy precipitations  Wind > 20 kt
SIGMETs :     Misc.  Thunderstorms  Icing  Turbulence  Mountain Waves  Volcanic Ashes






- Airport Elevation : 291 ft
- IATA code : ORY


LFPO - Paris-Orly

CURRENT METAR :
  • 071630Z 19007KT 160V230 CAVOK 16/01 Q1018 NOSIG

EXPIRED METARs :
  • 071600Z 20007KT CAVOK 16/00 Q1018 NOSIG
  • 071530Z 19006KT 130V230 CAVOK 14/M00 Q1018 NOSIG
  • 071500Z 20007KT 170V240 CAVOK 14/01 Q1018 NOSIG
  • 071430Z 29005KT 270V330 CAVOK 15/M00 Q1018 NOSIG

TAF TAF LFPO
Valid from the 07 at 12:00 until the 08 at 18:00 UTC


071100Z 0712/0818 26008KT CAVOK
BECMG 0718/0720 16007KT
TEMPO 0804/0809 BKN030
BECMG 0809/0811 20010KT
TEMPO 0812/0816 20015G25KT
ATIS : +33 1 49 75 65 80



MET'MAP, your aeronautical weather chart ! - Copyright ORBIFLY December 2007 - Disclaimer

ORBIFLY MET'MAP TEAM :

Programming & Development : Alexandra Zaïnal
Concept & original design : Baudouin d'Aumeries
Assistance for programming : Marc-Olivier Méhu
Technical & hardware support : Manuel Goepfert

Contact : metmap@orbifly.com




SOURCES & CREDITS :

   NOAA